EW5500 Weather Reports


time (UTC)temp
C
wind
direction
speed
KPH
gust
KPH
rain 1hr
cm
rain 24hr
cm
rain mn
cm
humidity
%
barometer
mb
20260505061621 0 350 0.0 1.6 0.00 0.00 0.00 65 1017.1
20260505060053 0 350 0.0 0.0 0.00 0.00 0.00 66 1016.9
20260505054602 0 350 0.0 0.0 0.00 0.00 0.00 66 1016.9
20260505053047 0 350 0.0 0.0 0.00 0.00 0.00 66 1016.7
20260505051545 0 350 0.0 1.6 0.00 0.00 0.00 66 1016.5
20260505041531 2 350 0.0 4.8 0.00 0.00 0.00 58 1015.5
20260505040027 2 356 1.6 4.8 0.00 0.00 0.00 57 1015.3
20260505034523 3 46 0.0 3.2 0.00 0.00 0.00 55 1015.2
20260505033031 3 350 0.0 6.4 0.00 0.00 0.00 54 1015.0
20260505031516 5 103 1.6 9.7 0.00 0.00 0.00 52 1014.9
20260505030013 5 104 4.8 11.3 0.00 0.00 0.00 49 1014.7
20260505024528 6 91 1.6 8.0 0.00 0.00 0.00 48 1014.6
20260505023008 6 1 3.2 8.0 0.00 0.00 0.00 46 1014.5
20260505021521 7 6 6.4 16.1 0.00 0.00 0.00 44 1014.4
20260505020006 7 326 12.9 22.5 0.00 0.00 0.00 42 1014.3
20260505014504 8 341 12.9 27.4 0.00 0.00 0.00 41 1014.3
20260505013004 9 27 4.8 22.5 0.00 0.00 0.00 39 1014.2
20260505011504 9 30 8.0 30.6 0.00 0.00 0.00 39 1014.1
20260505010002 9 20 17.7 33.8 0.00 0.00 0.00 39 1014.1
20260505004606 10 225 6.4 32.2 0.00 0.00 0.00 39 1014.0
20260505003059 10 333 17.7 32.2 0.00 0.00 0.00 38 1014.0
20260505001558 10 20 14.5 35.4 0.00 0.00 0.00 37 1013.7
20260505000058 10 43 11.3 32.2 0.00 0.00 0.00 38 1013.6
20260504234556 10 11 20.9 38.6 0.00 0.00 0.00 37 1013.5
20260504233100 10 354 14.5 38.6 0.00 0.00 0.00 37 1013.4
20260504231553 11 3 16.1 32.2 0.00 0.00 0.00 36 1013.3
20260504230051 11 353 14.5 35.4 0.00 0.00 0.00 35 1013.1
20260504224550 11 359 17.7 37.0 0.00 0.00 0.00 35 1013.0
20260504223055 11 194 19.3 40.2 0.00 0.00 0.00 32 1012.9
20260504221558 11 12 27.4 45.1 0.00 0.00 0.00 31 1012.7
20260504220112 12 355 19.3 35.4 0.00 0.00 0.00 30 1012.7
20260504214548 12 344 12.9 43.5 0.00 0.00 0.00 30 1012.7
20260504213102 11 278 9.7 35.4 0.00 0.00 0.00 31 1012.7
20260504211547 11 40 12.9 43.5 0.00 0.00 0.00 31 1012.7
20260504210047 12 333 17.7 37.0 0.00 0.00 0.00 30 1012.6
20260504204600 12 276 12.9 38.6 0.00 0.00 0.00 29 1012.6
20260504203044 11 8 22.5 33.8 0.00 0.00 0.00 31 1012.5
20260504201542 11 245 12.9 32.2 0.00 0.00 0.00 31 1012.5
20260504200045 12 338 16.1 32.2 0.00 0.00 0.00 31 1012.4
20260504194544 11 49 12.9 27.4 0.00 0.00 0.00 31 1012.4
20260504193038 11 330 11.3 27.4 0.00 0.00 0.00 35 1012.6
20260504191540 11 353 9.7 19.3 0.00 0.00 0.00 38 1012.6
20260504190038 10 333 8.0 22.5 0.00 0.00 0.00 38 1012.6
20260504184535 11 306 8.0 25.7 0.00 0.00 0.00 38 1012.8
20260504183033 10 348 16.1 27.4 0.00 0.00 0.00 38 1012.7
20260504181529 10 58 17.7 29.0 0.00 0.00 0.00 37 1012.8
20260504180029 10 348 16.1 33.8 0.00 0.00 0.00 39 1013.0
20260504174528 10 13 11.3 37.0 0.00 0.00 0.00 38 1012.9
20260504173026 10 29 14.5 33.8 0.00 0.00 0.00 39 1012.8
20260504171525 10 11 12.9 29.0 0.00 0.00 0.00 40 1012.9
20260504081537 7 308 1.6 16.1 0.00 0.00 0.00 67 1010.8